TimeCST,TemperatureF,Dew PointF,Humidity,Sea Level PressureIn,VisibilityMPH,Wind Direction,Wind SpeedMPH,Gust SpeedMPH,PrecipitationIn,Events,Conditions,WindDirDegrees,DateUTC
12:54 AM,1.0,-6.0,72,30.35,10.0,Calm,Calm,-,N/A,,Clear,0,2013-01-18 06:54:00
1:54 AM,-0.9,-6.0,79,30.36,10.0,Calm,Calm,-,N/A,,Clear,0,2013-01-18 07:54:00
2:54 AM,1.0,-5.1,75,30.35,10.0,Calm,Calm,-,N/A,,Clear,0,2013-01-18 08:54:00
3:54 AM,1.0,-4.0,79,30.32,10.0,Calm,Calm,-,N/A,,Mostly Cloudy,0,2013-01-18 09:54:00
4:54 AM,3.9,-2.0,76,30.31,10.0,Calm,Calm,-,N/A,,Overcast,0,2013-01-18 10:54:00
5:54 AM,6.1,-0.9,73,30.27,10.0,South,3.5,-,N/A,,Overcast,190,2013-01-18 11:54:00
6:54 AM,6.1,-0.9,73,30.25,10.0,South,8.1,-,N/A,,Overcast,180,2013-01-18 12:54:00
7:20 AM,6.8,1.4,79,30.15,2.0,South,10.4,-,0.00,Snow,Light Snow,170,2013-01-18 13:20:00
7:27 AM,6.8,1.4,79,30.15,1.8,South,9.2,-,0.00,Snow,Light Snow,180,2013-01-18 13:27:00
7:54 AM,6.1,1.9,83,30.22,1.0,SSE,6.9,-,0.00,Snow,Light Snow,160,2013-01-18 13:54:00
8:54 AM,7.0,3.0,84,30.17,1.0,SSE,10.4,-,0.00,Snow,Light Snow,150,2013-01-18 14:54:00
9:07 AM,6.8,3.2,85,30.07,0.8,SSE,9.2,-,0.00,Snow,Light Snow,150,2013-01-18 15:07:00
9:54 AM,8.1,3.0,80,30.11,0.8,SE,9.2,-,0.00,Snow,Light Snow,140,2013-01-18 15:54:00
10:26 AM,8.6,3.2,79,29.99,1.2,SSE,9.2,-,0.01,Snow,Light Snow,150,2013-01-18 16:26:00
10:45 AM,8.6,5.0,85,29.97,0.5,SE,6.9,-,0.01,Fog-Snow,Snow,140,2013-01-18 16:45:00
10:54 AM,9.0,5.0,84,30.05,0.5,SSE,6.9,-,0.01,Fog-Snow,Snow,150,2013-01-18 16:54:00
11:24 AM,10.4,6.8,85,29.94,0.2,SSE,4.6,-,0.01,Fog-Snow,Snow,150,2013-01-18 17:24:00
11:54 AM,10.0,6.1,84,29.99,0.5,SE,3.5,-,0.02,Fog-Snow,Snow,130,2013-01-18 17:54:00
12:06 PM,10.4,6.8,85,29.89,1.0,SE,4.6,-,0.00,Snow,Light Snow,130,2013-01-18 18:06:00
12:54 PM,12.0,7.0,80,29.93,2.0,Calm,Calm,-,0.00,Snow,Light Snow,0,2013-01-18 18:54:00
1:15 PM,12.2,6.8,79,29.83,3.0,ENE,3.5,-,0.00,,Haze,70,2013-01-18 19:15:00
1:54 PM,12.9,8.1,81,29.90,5.0,East,5.8,-,0.00,,Haze,90,2013-01-18 19:54:00
2:54 PM,12.9,9.0,84,29.88,10.0,Calm,Calm,-,N/A,,Overcast,0,2013-01-18 20:54:00
3:14 PM,14.0,8.6,79,29.79,10.0,Calm,Calm,-,N/A,,Scattered Clouds,0,2013-01-18 21:14:00
3:54 PM,14.0,9.0,80,29.85,10.0,ESE,3.5,-,N/A,,Overcast,110,2013-01-18 21:54:00
4:28 PM,14.0,10.4,86,29.76,10.0,Calm,Calm,-,N/A,,Overcast,0,2013-01-18 22:28:00
4:54 PM,15.1,10.0,80,29.85,10.0,Calm,Calm,-,N/A,,Overcast,0,2013-01-18 22:54:00
5:04 PM,15.8,10.4,79,29.76,10.0,Calm,Calm,-,N/A,,Overcast,0,2013-01-18 23:04:00
5:54 PM,15.1,10.9,84,29.83,10.0,Calm,Calm,-,N/A,,Overcast,0,2013-01-18 23:54:00
6:54 PM,15.1,10.9,84,29.81,10.0,NW,3.5,-,N/A,,Overcast,320,2013-01-19 00:54:00
7:54 PM,16.0,10.9,81,29.79,10.0,Calm,Calm,-,N/A,,Overcast,0,2013-01-19 01:54:00
10:54 PM,17.1,12.9,84,29.77,10.0,NNW,3.5,-,N/A,,Overcast,340,2013-01-19 04:54:00
11:52 PM,17.6,12.2,79,29.69,10.0,North,6.9,-,N/A,,Overcast,350,2013-01-19 05:52:00
11:54 PM,17.1,12.0,81,29.76,10.0,North,5.8,-,N/A,,Overcast,350,2013-01-19 05:54:00